Simultaneous Nadir Overpasses (SNOs) Predictions

Prediction of SNOs between GOES-14 and NPP Satellite Orbit:

Table of predicted SNOs for the next 14.0 days since TLE Epoch: 5/18/2024
Index Date Time (GOES-14) GOES-14 Lat,Lon NPP Lat,Lon Distance(km) Time Diff (sec)
1 05/18/2024 20:40:22 -0.12,-108.64 -0.24,-109.13 55.96 80
2 05/19/2024 20:24:16 -0.13,-108.64 0.80,-104.60 461.15 80
3 05/21/2024 08:43:22 0.11,-108.63 0.40,-109.85 139.65 80
4 05/22/2024 08:27:16 0.12,-108.63 -0.64,-105.33 376.80 80
5 05/23/2024 20:46:30 -0.09,-108.61 -0.53,-110.62 229.36 80
6 05/24/2024 20:30:24 -0.10,-108.60 0.46,-106.08 287.30 80
7 05/26/2024 08:49:30 0.07,-108.60 0.67,-111.36 313.34 80
8 05/27/2024 08:33:24 0.09,-108.59 -0.33,-106.82 202.78 80
9 05/28/2024 20:52:37 -0.06,-108.56 -0.88,-112.10 404.66 80
10 05/29/2024 20:36:31 -0.08,-108.55 0.13,-107.57 112.06 80
11 05/31/2024 08:55:37 0.05,-108.56 0.98,-112.84 487.43 80
